START_TIME,STEP,MOV.,M29,t_acc.,H22,t_acc.,H26,t_acc.,H30,t_acc.
1981-08-26 07:01:44.800 ,0,0,0.,24.0,0.,24.0,0.,24.0,0.,24.0
1981-08-26 07:02:08.800 ,1,1,0.,24.0,0.,24.0,0.,24.0,0.,24.0
1981-08-26 07:02:32.800 ,2,1,0.,24.0,0.,24.0,0.,24.0,0.,24.0
1981-08-26 07:02:56.800 ,3,1,0.,24.0,0.,24.0,0.,24.0,0.,24.0
1981-08-26 07:03:20.800 ,4,1,0.,24.0,0.,24.0,0.,24.0,0.,24.0
1981-08-26 07:03:44.800 ,5,1,0.,24.0,0.,24.0,0.,24.0,0.,24.0
1981-08-26 07:04:08.800 ,6,1,0.,24.0,0.,24.0,0.,24.0,0.,24.0
1981-08-26 07:04:32.800 ,0,0,0.,24.0,0.,24.0,0.,24.0,0.,24.0
1981-08-26 07:05:23.200 ,0,0,0.,24.0,0.,24.0,0.,24.0,0.,24.0
1981-08-26 07:05:44.800 ,5,1,0.,24.0,0.,24.0,0.,24.0,0.,24.0
1981-08-26 07:06:08.800 ,4,1,0.,24.0,0.,24.0,0.,24.0,0.,24.0
1981-08-26 07:06:32.800 ,3,1,0.,24.0,0.,24.0,0.,24.0,0.,24.0
1981-08-26 07:06:56.800 ,2,1,0.,24.0,0.,24.0,0.,24.0,0.,24.0
1981-08-26 07:07:20.800 ,1,1,0.,24.0,0.,24.0,0.,24.0,0.,24.0
1981-08-26 07:07:44.800 ,0,1,0.,24.0,0.,24.0,0.,24.0,0.,24.0
1981-08-26 07:08:08.800 ,0,1,0.,24.0,0.,24.0,0.,24.0,0.,24.0
1981-08-26 07:08:32.800 ,1,1,0.,24.0,0.,24.0,0.,24.0,0.,24.0
1981-08-26 07:08:56.800 ,2,1,0.,24.0,0.,24.0,0.,24.0,0.,24.0
1981-08-26 07:09:20.800 ,3,1,0.,24.0,0.,24.0,0.,24.0,0.,24.0
1981-08-26 07:09:44.800 ,4,1,0.,24.0,0.,24.0,0.,24.0,0.,24.0
1981-08-26 07:10:08.800 ,5,1,0.,24.0,0.,24.0,0.,24.0,0.,24.0
1981-08-26 07:10:32.800 ,6,1,0.,24.0,0.,24.0,0.,24.0,0.,24.0
1981-08-26 07:10:56.800 ,7,1,0.,24.0,0.,24.0,0.,24.0,0.,24.0
1981-08-26 07:11:20.800 ,7,1,0.,24.0,0.,24.0,0.,24.0,0.,24.0
1981-08-26 07:11:44.800 ,6,1,0.,24.0,0.,24.0,0.,24.0,0.,24.0
1981-08-26 07:12:08.800 ,5,1,0.,24.0,0.,24.0,0.,24.0,0.,24.0
1981-08-26 07:12:32.800 ,4,1,0.,24.0,0.,24.0,0.,24.0,0.,24.0
1981-08-26 07:12:56.800 ,3,1,0.,24.0,0.,24.0,0.,24.0,0.,24.0
1981-08-26 07:13:20.800 ,2,1,0.,24.0,0.,24.0,0.,24.0,0.,24.0
1981-08-26 07:13:44.800 ,1,1,0.,24.0,0.,24.0,0.,24.0,0.,24.0
1981-08-26 07:14:08.800 ,0,1,0.,24.0,0.,24.0,0.,24.0,0.,24.0
1981-08-26 07:14:32.800 ,0,1,0.,24.0,0.,24.0,0.,24.0,0.,24.0
1981-08-26 07:14:56.800 ,1,1,0.,24.0,0.,24.0,0.,24.0,0.,24.0
1981-08-26 07:15:20.800 ,2,1,0.,24.0,0.,24.0,0.,24.0,0.,24.0
1981-08-26 07:15:44.800 ,3,1,0.,24.0,0.,24.0,0.,24.0,0.,24.0
1981-08-26 07:16:08.800 ,4,1,0.,24.0,0.,24.0,0.,24.0,0.,24.0
1981-08-26 07:16:32.800 ,5,1,0.,24.0,0.,24.0,0.,24.0,0.,24.0
1981-08-26 07:16:56.800 ,6,1,0.,24.0,0.,24.0,0.,24.0,0.,24.0
1981-08-26 07:17:20.800 ,7,1,0.,24.0,0.,24.0,0.,24.0,0.,24.0
1981-08-26 07:17:44.800 ,7,1,0.,24.0,0.,24.0,0.,24.0,0.,24.0
1981-08-26 07:18:08.800 ,6,1,0.,24.0,0.,24.0,0.,24.0,0.,24.0
1981-08-26 07:18:32.800 ,5,1,0.,24.0,0.,24.0,0.,24.0,0.,24.0
1981-08-26 07:18:56.800 ,4,1,0.,24.0,0.,24.0,0.,24.0,0.,24.0
1981-08-26 07:19:20.800 ,3,1,0.,24.0,0.,24.0,0.,24.0,0.,24.0
1981-08-26 07:19:44.800 ,2,1,0.,24.0,0.,24.0,0.,24.0,0.,24.0
1981-08-26 07:20:08.800 ,1,1,0.,24.0,0.,24.0,0.,24.0,0.,24.0
1981-08-26 07:20:32.800 ,0,1,0.,24.0,0.,24.0,0.,24.0,0.,24.0
1981-08-26 07:20:56.800 ,0,1,0.,24.0,0.,24.0,0.,24.0,0.,24.0
1981-08-26 07:21:20.800 ,1,1,0.,24.0,0.,24.0,0.,24.0,0.,24.0
1981-08-26 07:21:44.800 ,2,1,0.,24.0,0.,24.0,0.,24.0,0.,24.0
1981-08-26 07:22:08.800 ,3,1,0.,24.0,0.,24.0,0.,24.0,0.,24.0
1981-08-26 07:22:32.800 ,4,1,0.,24.0,0.,24.0,0.,24.0,0.,24.0
1981-08-26 07:22:56.800 ,5,1,0.,24.0,0.,24.0,0.,24.0,0.,24.0
1981-08-26 07:23:20.800 ,6,1,0.,24.0,0.,24.0,0.,24.0,0.,24.0
1981-08-26 07:23:44.800 ,7,1,0.,24.0,0.,24.0,0.,24.0,0.,24.0
1981-08-26 07:24:08.800 ,7,1,0.,24.0,0.,24.0,0.,24.0,0.,24.0
1981-08-26 07:24:32.800 ,6,1,0.,24.0,0.,24.0,0.,24.0,0.,24.0
1981-08-26 07:24:56.800 ,5,1,0.,24.0,0.,24.0,0.,24.0,0.,24.0
1981-08-26 07:25:20.800 ,4,1,0.,24.0,0.,24.0,0.,24.0,0.,24.0
1981-08-26 07:25:44.800 ,3,1,0.,24.0,0.,24.0,0.,24.0,0.,24.0
1981-08-26 07:26:08.800 ,2,1,0.,24.0,0.,24.0,0.,24.0,0.,24.0
1981-08-26 07:26:32.800 ,1,1,0.,24.0,0.,24.0,0.,24.0,0.,24.0
1981-08-26 07:26:56.800 ,0,1,0.,24.0,0.,24.0,0.,24.0,0.,24.0
1981-08-26 07:27:20.800 ,0,1,0.,24.0,0.,24.0,0.,24.0,0.,24.0
1981-08-26 07:27:44.800 ,1,1,0.,24.0,0.,24.0,0.,24.0,0.,24.0
1981-08-26 07:28:08.800 ,2,1,0.,24.0,0.,24.0,0.,24.0,0.,24.0
1981-08-26 07:28:32.800 ,3,1,0.,24.0,0.,24.0,0.,24.0,0.,24.0
1981-08-26 07:28:56.800 ,4,1,0.,24.0,0.,24.0,0.,24.0,0.,24.0
1981-08-26 07:29:20.800 ,5,1,0.,24.0,0.,24.0,0.,24.0,0.,24.0
1981-08-26 07:29:44.800 ,6,1,0.,24.0,0.,24.0,0.,24.0,0.,24.0
1981-08-26 07:30:08.800 ,7,1,0.,24.0,0.,24.0,0.,24.0,0.,24.0
1981-08-26 07:30:32.800 ,7,1,0.,24.0,0.,24.0,0.,24.0,0.,24.0
1981-08-26 07:30:56.800 ,6,1,0.,24.0,0.,24.0,0.,24.0,0.,24.0
1981-08-26 07:31:20.800 ,5,1,0.,24.0,0.,24.0,0.,24.0,0.,24.0
1981-08-26 07:31:44.800 ,4,1,0.,24.0,0.,24.0,0.,24.0,0.,24.0
1981-08-26 07:32:08.800 ,3,1,0.,24.0,0.,24.0,0.,24.0,0.,24.0
1981-08-26 07:32:32.800 ,2,1,0.,24.0,0.,24.0,0.,24.0,0.,24.0
1981-08-26 07:32:56.800 ,1,1,0.,24.0,0.,24.0,0.,24.0,0.,24.0
1981-08-26 07:33:20.800 ,0,1,0.,24.0,0.,24.0,0.,24.0,0.,24.0
1981-08-26 07:33:44.800 ,0,1,0.,24.0,0.,24.0,0.,24.0,0.,24.0
1981-08-26 07:34:08.800 ,1,1,0.,24.0,0.,24.0,0.,24.0,0.,24.0
1981-08-26 07:34:32.800 ,2,1,0.,24.0,0.,24.0,0.,24.0,0.,24.0
1981-08-26 07:34:56.800 ,3,1,0.,24.0,0.,24.0,0.,24.0,0.,24.0
1981-08-26 07:35:20.800 ,4,1,0.,24.0,0.,24.0,0.,24.0,0.,24.0
1981-08-26 07:35:44.800 ,0,0,0.,24.0,0.,24.0,0.,24.0,0.,24.0
1981-08-26 07:38:38.800 ,0,0,0.,24.0,0.,24.0,0.,24.0,0.,24.0
1981-08-26 07:38:56.800 ,2,1,0.,24.0,0.,24.0,0.,24.0,0.,24.0
1981-08-26 07:39:20.800 ,0,0,0.,24.0,0.,24.0,0.,24.0,0.,24.0
1981-08-26 07:39:44.800 ,2,1,0.,24.0,0.,24.0,0.,24.0,0.,24.0
1981-08-26 07:40:08.800 ,6,1,0.,24.0,0.,24.0,0.,24.0,0.,24.0
1981-08-26 07:40:32.800 ,5,1,0.,24.0,0.,24.0,0.,24.0,0.,24.0
1981-08-26 07:40:56.800 ,1,1,0.,24.0,0.,24.0,0.,24.0,0.,24.0
1981-08-26 07:41:20.800 ,2,1,0.,24.0,0.,24.0,0.,24.0,0.,24.0
1981-08-26 07:41:44.800 ,6,1,0.,24.0,0.,24.0,0.,24.0,0.,24.0
1981-08-26 07:42:08.800 ,5,1,0.,24.0,0.,24.0,0.,24.0,0.,24.0
1981-08-26 07:42:32.800 ,1,1,0.,24.0,0.,24.0,0.,24.0,0.,24.0
1981-08-26 07:42:56.800 ,2,1,0.,24.0,0.,24.0,0.,24.0,0.,24.0
1981-08-26 07:43:20.800 ,6,1,0.,24.0,0.,24.0,0.,24.0,0.,24.0
1981-08-26 07:43:44.800 ,5,1,0.,24.0,0.,24.0,0.,24.0,0.,24.0
1981-08-26 07:44:08.800 ,1,1,0.,24.0,0.,24.0,0.,24.0,0.,24.0
1981-08-26 07:44:32.800 ,2,1,0.,24.0,0.,24.0,0.,24.0,0.,24.0
1981-08-26 07:44:56.800 ,6,1,0.,24.0,0.,24.0,0.,24.0,0.,24.0
1981-08-26 07:45:20.800 ,5,1,0.,24.0,0.,24.0,0.,24.0,0.,24.0
1981-08-26 07:45:44.800 ,1,1,0.,24.0,0.,24.0,0.,24.0,0.,24.0
1981-08-26 07:46:08.800 ,2,1,0.,24.0,0.,24.0,0.,24.0,0.,24.0
1981-08-26 07:46:32.800 ,6,1,0.,24.0,0.,24.0,0.,24.0,0.,24.0
1981-08-26 07:46:56.800 ,5,1,0.,24.0,0.,24.0,0.,24.0,0.,24.0
1981-08-26 07:47:20.800 ,1,1,0.,24.0,0.,24.0,0.,24.0,0.,24.0
1981-08-26 07:47:44.800 ,2,1,0.,24.0,0.,24.0,0.,24.0,0.,24.0
1981-08-26 07:48:08.800 ,6,1,0.,24.0,0.,24.0,0.,24.0,0.,24.0
1981-08-26 07:48:32.800 ,5,1,0.,24.0,0.,24.0,0.,24.0,0.,24.0
1981-08-26 07:48:56.800 ,1,1,0.,24.0,0.,24.0,0.,24.0,0.,24.0
1981-08-26 07:49:20.800 ,2,1,0.,24.0,0.,24.0,0.,24.0,0.,24.0
1981-08-26 07:49:44.800 ,6,1,0.,24.0,0.,24.0,0.,24.0,0.,24.0
1981-08-26 07:50:08.800 ,5,1,0.,24.0,0.,24.0,0.,24.0,0.,24.0
1981-08-26 07:50:32.800 ,1,1,0.,24.0,0.,24.0,0.,24.0,0.,24.0
1981-08-26 07:50:56.800 ,2,1,0.,24.0,0.,24.0,0.,24.0,0.,24.0
1981-08-26 07:51:20.800 ,6,1,0.,24.0,0.,24.0,0.,24.0,0.,24.0
1981-08-26 07:51:44.800 ,5,1,0.,24.0,0.,24.0,0.,24.0,0.,24.0
1981-08-26 07:52:08.800 ,1,1,0.,24.0,0.,24.0,0.,24.0,0.,24.0
1981-08-26 07:52:32.800 ,2,1,0.,24.0,0.,24.0,0.,24.0,0.,24.0
1981-08-26 07:52:56.800 ,6,1,0.,24.0,0.,24.0,0.,24.0,0.,24.0
1981-08-26 07:53:20.800 ,5,1,0.,24.0,0.,24.0,0.,24.0,0.,24.0
1981-08-26 07:53:44.800 ,1,1,0.,24.0,0.,24.0,0.,24.0,0.,24.0
1981-08-26 07:54:08.800 ,2,1,0.,24.0,0.,24.0,0.,24.0,0.,24.0
1981-08-26 07:54:32.800 ,6,1,0.,24.0,0.,24.0,0.,24.0,0.,24.0
1981-08-26 07:54:56.800 ,5,1,0.,24.0,0.,24.0,0.,24.0,0.,24.0
1981-08-26 07:55:20.800 ,1,1,0.,24.0,0.,24.0,0.,24.0,0.,24.0
1981-08-26 07:55:44.800 ,2,1,0.,24.0,0.,24.0,0.,24.0,0.,24.0
1981-08-26 07:56:08.800 ,6,1,0.,24.0,0.,24.0,0.,24.0,0.,24.0
1981-08-26 07:56:32.800 ,5,1,0.,24.0,0.,24.0,0.,24.0,0.,24.0
1981-08-26 07:56:56.800 ,1,1,0.,24.0,0.,24.0,0.,24.0,0.,24.0
1981-08-26 07:57:20.800 ,2,1,0.,24.0,0.,24.0,0.,24.0,0.,24.0
1981-08-26 07:57:44.800 ,6,1,0.,24.0,0.,24.0,0.,24.0,0.,24.0
1981-08-26 07:58:08.800 ,5,1,0.,24.0,0.,24.0,0.,24.0,0.,24.0
1981-08-26 07:58:32.800 ,1,1,0.,24.0,0.,24.0,0.,24.0,0.,24.0
1981-08-26 07:58:56.800 ,2,1,0.,24.0,0.,24.0,0.,24.0,0.,24.0
1981-08-26 07:59:20.800 ,6,1,0.,24.0,0.,24.0,0.,24.0,0.,24.0
1981-08-26 07:59:44.800 ,5,1,0.,24.0,0.,24.0,0.,24.0,0.,24.0
1981-08-26 08:00:08.800 ,1,1,0.,24.0,0.,24.0,0.,24.0,0.,24.0
1981-08-26 08:00:32.800 ,2,1,0.,24.0,0.,24.0,0.,24.0,0.,24.0
1981-08-26 08:00:56.800 ,6,1,0.,24.0,0.,24.0,0.,24.0,0.,24.0
1981-08-26 08:01:20.800 ,5,1,0.,24.0,0.,24.0,0.,24.0,0.,24.0
1981-08-26 08:01:44.800 ,1,1,0.,24.0,0.,24.0,0.,24.0,0.,24.0
1981-08-26 08:02:08.800 ,2,1,0.,24.0,0.,24.0,0.,24.0,0.,24.0
1981-08-26 08:02:32.800 ,6,1,0.,24.0,0.,24.0,0.,24.0,0.,24.0
1981-08-26 08:02:56.800 ,5,1,0.,24.0,0.,24.0,0.,24.0,0.,24.0
1981-08-26 08:03:20.800 ,1,1,0.,24.0,0.,24.0,0.,24.0,0.,24.0
1981-08-26 08:03:44.800 ,2,1,0.,24.0,0.,24.0,0.,24.0,0.,24.0
1981-08-26 08:04:08.800 ,6,1,0.,24.0,0.,24.0,0.,24.0,0.,24.0
1981-08-26 08:04:32.790 ,5,1,0.,24.0,0.,24.0,0.,24.0,0.,24.0
1981-08-26 08:04:56.790 ,1,1,0.,24.0,0.,24.0,0.,24.0,0.,24.0
1981-08-26 08:05:20.790 ,2,1,0.,24.0,0.,24.0,0.,24.0,0.,24.0
1981-08-26 08:05:44.790 ,6,1,0.,24.0,0.,24.0,0.,24.0,0.,24.0
1981-08-26 08:06:08.790 ,5,1,0.,24.0,0.,24.0,0.,24.0,0.,24.0
1981-08-26 08:06:32.790 ,1,1,0.,24.0,0.,24.0,0.,24.0,0.,24.0
1981-08-26 08:06:56.790 ,2,1,0.,24.0,0.,24.0,0.,24.0,0.,24.0
1981-08-26 08:07:20.790 ,0,0,0.,24.0,0.,24.0,0.,24.0,0.,24.0
1981-08-26 08:07:44.790 ,0,0,,0,,0,,0,,0
1981-08-26 08:07:44.790 ,5,1,0.,24.0,0.,24.0,0.,24.0,0.,24.0
1981-08-26 08:08:08.790 ,1,1,0.,24.0,0.,24.0,0.,24.0,0.,24.0
1981-08-26 08:08:32.790 ,2,1,0.,24.0,0.,24.0,0.,24.0,0.,24.0
1981-08-26 08:08:56.800 ,6,1,0.,24.0,0.,24.0,0.,24.0,0.,24.0
1981-08-26 08:09:20.800 ,5,1,0.,24.0,0.,24.0,0.,24.0,0.,24.0
1981-08-26 08:09:44.800 ,1,1,0.,24.0,0.,24.0,0.,24.0,0.,24.0
1981-08-26 08:10:08.800 ,2,1,0.,24.0,0.,24.0,0.,24.0,0.,24.0
1981-08-26 08:10:32.800 ,0,0,0.,24.0,0.,24.0,0.,24.0,0.,24.0
1981-08-26 08:10:56.800 ,7,1,0.,24.0,0.,24.0,0.,24.0,0.,24.0
1981-08-26 08:11:20.800 ,7,1,0.,24.0,0.,24.0,0.,24.0,0.,24.0
1981-08-26 08:11:44.800 ,6,1,0.,24.0,0.,24.0,0.,24.0,0.,24.0
1981-08-26 08:12:08.800 ,5,1,0.,24.0,0.,24.0,0.,24.0,0.,24.0
1981-08-26 08:12:32.800 ,4,1,0.,24.0,0.,24.0,0.,24.0,0.,24.0
1981-08-26 08:12:56.800 ,3,1,0.,24.0,0.,24.0,0.,24.0,0.,24.0
1981-08-26 08:13:20.800 ,2,1,0.,24.0,0.,24.0,0.,24.0,0.,24.0
1981-08-26 08:13:44.800 ,1,1,0.,24.0,0.,24.0,0.,24.0,0.,24.0
1981-08-26 08:14:08.800 ,0,1,0.,24.0,0.,24.0,0.,24.0,0.,24.0
1981-08-26 08:14:32.800 ,0,1,0.,24.0,0.,24.0,0.,24.0,0.,24.0
1981-08-26 08:14:56.800 ,1,1,0.,24.0,0.,24.0,0.,24.0,0.,24.0
1981-08-26 08:15:20.800 ,2,1,0.,24.0,0.,24.0,0.,24.0,0.,24.0
1981-08-26 08:15:44.800 ,3,1,0.,24.0,0.,24.0,0.,24.0,0.,24.0
1981-08-26 08:16:08.800 ,4,1,0.,24.0,0.,24.0,0.,24.0,0.,24.0
1981-08-26 08:16:32.800 ,5,1,0.,24.0,0.,24.0,0.,24.0,0.,24.0
1981-08-26 08:16:56.800 ,6,1,0.,24.0,0.,24.0,0.,24.0,0.,24.0
1981-08-26 08:17:20.800 ,7,1,0.,24.0,0.,24.0,0.,24.0,0.,24.0
1981-08-26 08:17:44.800 ,7,1,0.,24.0,0.,24.0,0.,24.0,0.,24.0
1981-08-26 08:18:08.800 ,6,1,0.,24.0,0.,24.0,0.,24.0,0.,24.0
1981-08-26 08:18:32.800 ,5,1,0.,24.0,0.,24.0,0.,24.0,0.,24.0
1981-08-26 08:18:56.800 ,4,1,0.,24.0,0.,24.0,0.,24.0,0.,24.0
1981-08-26 08:19:20.800 ,3,1,0.,24.0,0.,24.0,0.,24.0,0.,24.0
1981-08-26 08:19:44.800 ,2,1,0.,24.0,0.,24.0,0.,24.0,0.,24.0
1981-08-26 08:20:08.790 ,1,1,0.,24.0,0.,24.0,0.,24.0,0.,24.0
1981-08-26 08:20:32.790 ,0,1,0.,24.0,0.,24.0,0.,24.0,0.,24.0
1981-08-26 08:20:56.790 ,0,1,0.,24.0,0.,24.0,0.,24.0,0.,24.0
1981-08-26 08:21:20.790 ,1,1,0.,24.0,0.,24.0,0.,24.0,0.,24.0
1981-08-26 08:21:44.790 ,2,1,0.,24.0,0.,24.0,0.,24.0,0.,24.0
1981-08-26 08:22:08.790 ,3,1,0.,24.0,0.,24.0,0.,24.0,0.,24.0
1981-08-26 08:22:32.790 ,4,1,0.,24.0,0.,24.0,0.,24.0,0.,24.0
1981-08-26 08:22:56.790 ,5,1,0.,24.0,0.,24.0,0.,24.0,0.,24.0
1981-08-26 08:23:20.790 ,6,1,0.,24.0,0.,24.0,0.,24.0,0.,24.0
1981-08-26 08:23:44.790 ,7,1,0.,24.0,0.,24.0,0.,24.0,0.,24.0
1981-08-26 08:24:08.790 ,7,1,0.,24.0,0.,24.0,0.,24.0,0.,24.0
1981-08-26 08:24:32.790 ,6,1,0.,24.0,0.,24.0,0.,24.0,0.,24.0
1981-08-26 08:24:56.790 ,5,1,0.,24.0,0.,24.0,0.,24.0,0.,24.0
1981-08-26 08:25:20.790 ,4,1,0.,24.0,0.,24.0,0.,24.0,0.,24.0
1981-08-26 08:25:44.790 ,3,1,0.,24.0,0.,24.0,0.,24.0,0.,24.0
1981-08-26 08:26:08.790 ,2,1,0.,24.0,0.,24.0,0.,24.0,0.,24.0
1981-08-26 08:26:32.790 ,1,1,0.,24.0,0.,24.0,0.,24.0,0.,24.0
1981-08-26 08:26:56.790 ,0,1,0.,24.0,0.,24.0,0.,24.0,0.,24.0
1981-08-26 08:27:20.790 ,0,1,0.,24.0,0.,24.0,0.,24.0,0.,24.0
1981-08-26 08:27:44.790 ,1,1,0.,24.0,0.,24.0,0.,24.0,0.,24.0
1981-08-26 08:28:08.790 ,2,1,0.,24.0,0.,24.0,0.,24.0,0.,24.0
1981-08-26 08:28:32.790 ,3,1,0.,24.0,0.,24.0,0.,24.0,0.,24.0
1981-08-26 08:28:56.790 ,4,1,0.,24.0,0.,24.0,0.,24.0,0.,24.0
1981-08-26 08:29:20.790 ,5,1,0.,24.0,0.,24.0,0.,24.0,0.,24.0
1981-08-26 08:29:44.790 ,6,1,0.,24.0,0.,24.0,0.,24.0,0.,24.0
1981-08-26 08:30:08.790 ,7,1,0.,24.0,0.,24.0,0.,24.0,0.,24.0
1981-08-26 08:30:32.790 ,7,1,0.,24.0,0.,24.0,0.,24.0,0.,24.0
1981-08-26 08:30:56.790 ,6,1,0.,24.0,0.,24.0,0.,24.0,0.,24.0
1981-08-26 08:31:20.790 ,5,1,0.,24.0,0.,24.0,0.,24.0,0.,24.0
1981-08-26 08:31:44.790 ,4,1,0.,24.0,0.,24.0,0.,24.0,0.,24.0
1981-08-26 08:32:08.790 ,3,1,0.,24.0,0.,24.0,0.,24.0,0.,24.0
1981-08-26 08:32:32.790 ,2,1,0.,24.0,0.,24.0,0.,24.0,0.,24.0
1981-08-26 08:32:56.790 ,1,1,0.,24.0,0.,24.0,0.,24.0,0.,24.0
1981-08-26 08:33:20.790 ,0,1,0.,24.0,0.,24.0,0.,24.0,0.,24.0
1981-08-26 08:33:44.790 ,0,1,0.,24.0,0.,24.0,0.,24.0,0.,24.0
1981-08-26 08:34:08.790 ,1,1,0.,24.0,0.,24.0,0.,24.0,0.,24.0
1981-08-26 08:34:32.790 ,2,1,0.,24.0,0.,24.0,0.,24.0,0.,24.0
1981-08-26 08:34:56.790 ,3,1,0.,24.0,0.,24.0,0.,24.0,0.,24.0
1981-08-26 08:35:20.790 ,4,1,0.,24.0,0.,24.0,0.,24.0,0.,24.0
1981-08-26 08:35:44.790 ,5,1,0.,24.0,0.,24.0,0.,24.0,0.,24.0
1981-08-26 08:36:08.790 ,6,1,0.,24.0,0.,24.0,0.,24.0,0.,24.0
1981-08-26 08:36:32.790 ,7,1,0.,24.0,0.,24.0,0.,24.0,0.,24.0
1981-08-26 08:37:44.790 ,0,0,0.,24.0,0.,24.0,0.,24.0,0.,24.0
1981-08-26 08:38:08.790 ,4,1,0.,24.0,0.,24.0,0.,24.0,0.,24.0
1981-08-26 08:38:32.790 ,3,1,0.,24.0,0.,24.0,0.,24.0,0.,24.0
1981-08-26 08:38:56.790 ,2,1,0.,24.0,0.,24.0,0.,24.0,0.,24.0
1981-08-26 08:39:20.790 ,1,1,0.,24.0,0.,24.0,0.,24.0,0.,24.0
1981-08-26 08:39:44.790 ,0,1,0.,24.0,0.,24.0,0.,24.0,0.,24.0
1981-08-26 08:40:08.790 ,0,1,0.,24.0,0.,24.0,0.,24.0,0.,24.0
1981-08-26 08:40:32.790 ,1,1,0.,24.0,0.,24.0,0.,24.0,0.,24.0
1981-08-26 08:41:44.790 ,0,0,0.,24.0,0.,24.0,0.,24.0,0.,24.0
1981-08-26 08:42:08.790 ,5,1,0.,24.0,0.,24.0,0.,24.0,0.,24.0
1981-08-26 08:42:32.790 ,6,1,0.,24.0,0.,24.0,0.,24.0,0.,24.0
1981-08-26 08:42:56.790 ,7,1,0.,24.0,0.,24.0,0.,24.0,0.,24.0
1981-08-26 08:43:20.790 ,7,1,0.,24.0,0.,24.0,0.,24.0,0.,24.0
1981-08-26 08:43:44.790 ,6,1,0.,24.0,0.,24.0,0.,24.0,0.,24.0
1981-08-26 08:44:08.790 ,5,1,0.,24.0,0.,24.0,0.,24.0,0.,24.0
1981-08-26 08:44:32.790 ,4,1,0.,24.0,0.,24.0,0.,24.0,0.,24.0
1981-08-26 08:44:56.790 ,3,1,0.,24.0,0.,24.0,0.,24.0,0.,24.0
1981-08-26 08:45:20.790 ,2,1,0.,24.0,0.,24.0,0.,24.0,0.,24.0
1981-08-26 08:45:44.790 ,1,1,0.,24.0,0.,24.0,0.,24.0,0.,24.0
1981-08-26 08:46:08.790 ,0,1,0.,24.0,0.,24.0,0.,24.0,0.,24.0
1981-08-26 08:46:32.790 ,0,1,0.,24.0,0.,24.0,0.,24.0,0.,24.0
1981-08-26 08:46:56.790 ,1,1,0.,24.0,0.,24.0,0.,24.0,0.,24.0
1981-08-26 08:47:20.790 ,2,1,0.,24.0,0.,24.0,0.,24.0,0.,24.0
1981-08-26 08:47:44.790 ,3,1,0.,24.0,0.,24.0,0.,24.0,0.,24.0
1981-08-26 08:48:08.790 ,4,1,0.,24.0,0.,24.0,0.,24.0,0.,24.0
1981-08-26 08:48:32.790 ,5,1,0.,24.0,0.,24.0,0.,24.0,0.,24.0
1981-08-26 08:48:56.790 ,6,1,0.,24.0,0.,24.0,0.,24.0,0.,24.0
1981-08-26 08:49:20.790 ,7,1,0.,24.0,0.,24.0,0.,24.0,0.,24.0
1981-08-26 08:49:44.790 ,7,1,0.,24.0,0.,24.0,0.,24.0,0.,24.0
1981-08-26 08:50:08.790 ,6,1,0.,24.0,0.,24.0,0.,24.0,0.,24.0
1981-08-26 08:50:32.790 ,5,1,0.,24.0,0.,24.0,0.,24.0,0.,24.0
1981-08-26 08:50:56.790 ,4,1,0.,24.0,0.,24.0,0.,24.0,0.,24.0
1981-08-26 08:51:20.790 ,3,1,0.,24.0,0.,24.0,0.,24.0,0.,24.0
1981-08-26 08:51:44.790 ,2,1,0.,24.0,0.,24.0,0.,24.0,0.,24.0
1981-08-26 08:52:08.790 ,1,1,0.,24.0,0.,24.0,0.,24.0,0.,24.0
1981-08-26 08:52:32.790 ,0,1,0.,24.0,0.,24.0,0.,24.0,0.,24.0
1981-08-26 08:52:56.790 ,0,1,0.,24.0,0.,24.0,0.,24.0,0.,24.0
1981-08-26 08:53:20.790 ,1,1,0.,24.0,0.,24.0,0.,24.0,0.,24.0
1981-08-26 08:53:44.790 ,2,1,0.,24.0,0.,24.0,0.,24.0,0.,24.0
1981-08-26 08:54:08.790 ,3,1,0.,24.0,0.,24.0,0.,24.0,0.,24.0
1981-08-26 08:54:32.790 ,4,1,0.,24.0,0.,24.0,0.,24.0,0.,24.0
1981-08-26 08:54:56.790 ,5,1,0.,24.0,0.,24.0,0.,24.0,0.,24.0
1981-08-26 08:55:20.790 ,6,1,0.,24.0,0.,24.0,0.,24.0,0.,24.0
1981-08-26 08:55:44.790 ,7,1,0.,24.0,0.,24.0,0.,24.0,0.,24.0
1981-08-26 08:56:08.790 ,7,1,0.,24.0,0.,24.0,0.,24.0,0.,24.0
1981-08-26 08:56:32.790 ,6,1,0.,24.0,0.,24.0,0.,24.0,0.,24.0
1981-08-26 08:56:56.790 ,5,1,0.,24.0,0.,24.0,0.,24.0,0.,24.0
1981-08-26 08:57:20.790 ,4,1,0.,24.0,0.,24.0,0.,24.0,0.,24.0
1981-08-26 08:57:44.790 ,3,1,0.,24.0,0.,24.0,0.,24.0,0.,24.0
1981-08-26 08:58:08.790 ,0,0,0.,24.0,0.,24.0,0.,24.0,0.,24.0
1981-08-26 08:59:30.390 ,0,0,,0,,0,,0,,0
1981-08-26 08:59:44.790 ,1,1,0.,24.0,0.,24.0,0.,24.0,0.,24.0
1981-08-26 09:00:08.790 ,2,1,0.,24.0,0.,24.0,0.,24.0,0.,24.0
